Time,TemperatureF,DewpointF,PressureIn,WindDirection,WindDirectionDegrees,WindSpeedMPH,WindSpeedGustMPH,Humidity,HourlyPrecipIn,Conditions,Clouds,dailyrainin,SoftwareType,DateUTC
2013-07-25 12:30:00,78.3,68.1,29.85,ENE,59,2.0,6.0,71,0.00,CLR,,0.00,WeatherDisplay:10.37,2013-07-25 16:30:00,
2013-07-25 13:00:00,79.5,66.3,29.86,ENE,75,3.0,5.0,64,0.00,CLR,,0.00,WeatherDisplay:10.37,2013-07-25 17:00:00,
2013-07-25 13:15:00,79.7,65.6,29.85,NE,56,0.0,5.0,62,0.00,CLR,,0.00,WeatherDisplay:10.37,2013-07-25 17:15:00,
2013-07-25 13:30:00,81.4,67.1,29.85,ENE,71,3.0,6.0,62,0.00,CLR,,0.00,WeatherDisplay:10.37,2013-07-25 17:30:00,
2013-07-25 13:45:00,81.1,64.4,29.85,ENE,76,1.0,6.0,57,0.00,FEW,,0.00,WeatherDisplay:10.37,2013-07-25 17:45:00,
2013-07-25 14:00:00,81.5,63.3,29.85,ENE,57,1.0,6.0,54,0.00,FEW,,0.00,WeatherDisplay:10.37,2013-07-25 18:00:00,
2013-07-25 14:15:00,82.2,63.9,29.85,NE,56,1.0,5.0,54,0.00,FEW,,0.00,WeatherDisplay:10.37,2013-07-25 18:15:00,
2013-07-25 14:30:00,82.4,63.5,29.84,North,5,1.0,4.0,53,0.00,FEW,,0.00,WeatherDisplay:10.37,2013-07-25 18:30:00,
2013-07-25 14:45:00,83.2,62.6,29.85,NE,47,1.0,4.0,50,0.00,CLR,,0.00,WeatherDisplay:10.37,2013-07-25 18:45:00,
2013-07-25 15:00:00,83.1,64.8,29.84,East,95,0.0,5.0,54,0.00,CLR,,0.00,WeatherDisplay:10.37,2013-07-25 19:00:00,
2013-07-25 15:15:00,83.6,58.1,29.84,ENE,68,1.0,4.0,42,0.00,CLR,,0.00,WeatherDisplay:10.37,2013-07-25 19:15:00,
2013-07-25 15:30:00,84.1,58.5,29.84,West,281,0.0,3.0,42,0.00,CLR,,0.00,WeatherDisplay:10.37,2013-07-25 19:30:00,
2013-07-25 15:45:00,84.1,60.5,29.84,ENE,59,0.0,3.0,45,0.00,CLR,,0.00,WeatherDisplay:10.37,2013-07-25 19:45:00,
2013-07-25 16:00:00,84.5,60.8,29.85,South,177,1.0,2.0,45,0.00,CLR,,0.00,WeatherDisplay:10.37,2013-07-25 20:00:00,
2013-07-25 16:15:00,84.2,64.7,29.84,South,188,1.0,4.0,52,0.00,CLR,,0.00,WeatherDisplay:10.37,2013-07-25 20:15:00,
2013-07-25 16:30:00,84.4,62.0,29.84,SSW,213,1.0,6.0,47,0.00,CLR,,0.00,WeatherDisplay:10.37,2013-07-25 20:30:00,
2013-07-25 16:45:00,83.9,62.7,29.84,WNW,287,0.0,5.0,49,0.00,CLR,,0.00,WeatherDisplay:10.37,2013-07-25 20:45:00,
2013-07-25 17:00:00,83.8,63.7,29.84,SE,136,2.0,7.0,51,0.00,CLR,,0.00,WeatherDisplay:10.37,2013-07-25 21:00:00,
2013-07-25 17:15:00,83.4,68.1,29.84,NNE,23,0.0,4.0,60,0.00,CLR,,0.00,WeatherDisplay:10.37,2013-07-25 21:15:00,
2013-07-25 17:30:00,80.2,69.9,29.84,WNW,294,0.0,4.0,71,0.00,CLR,,0.00,WeatherDisplay:10.37,2013-07-25 21:30:00,
2013-07-25 17:45:00,78.3,70.5,29.84,WNW,294,0.0,2.0,77,0.00,CLR,,0.00,WeatherDisplay:10.37,2013-07-25 21:45:00,
2013-07-25 18:00:00,77.6,70.2,29.85,WNW,292,0.0,3.0,78,0.00,CLR,,0.00,WeatherDisplay:10.37,2013-07-25 22:00:00,
2013-07-25 18:15:00,78.2,70.4,29.84,East,98,0.0,10.0,77,0.00,CLR,,0.00,WeatherDisplay:10.37,2013-07-25 22:15:00,
2013-07-25 18:30:00,78.1,67.1,29.85,SE,132,2.0,6.0,69,0.00,CLR,,0.00,WeatherDisplay:10.37,2013-07-25 22:30:00,
2013-07-25 18:45:00,78.7,67.2,29.85,SSE,164,2.0,6.0,68,0.00,CLR,,0.00,WeatherDisplay:10.37,2013-07-25 22:45:00,
2013-07-25 19:00:00,78.4,66.1,29.86,East,81,1.0,4.0,66,0.00,CLR,,0.00,WeatherDisplay:10.37,2013-07-25 23:00:00,
2013-07-25 19:15:00,77.6,67.5,29.87,East,83,0.0,3.0,71,0.00,CLR,,0.00,WeatherDisplay:10.37,2013-07-25 23:15:00,
2013-07-25 19:30:00,75.6,67.5,29.87,East,84,1.0,4.0,76,0.00,CLR,,0.00,WeatherDisplay:10.37,2013-07-25 23:30:00,
2013-07-25 19:45:00,73.4,66.9,29.88,East,84,0.0,3.0,80,0.00,BKN,,0.00,WeatherDisplay:10.37,2013-07-25 23:45:00,
2013-07-25 20:00:00,72.0,66.2,29.89,East,93,1.0,3.0,82,0.00,BKN,,0.00,WeatherDisplay:10.37,2013-07-26 00:00:00,
2013-07-25 20:15:00,70.8,65.4,29.89,East,93,0.0,3.0,83,0.00,BKN,,0.00,WeatherDisplay:10.37,2013-07-26 00:15:00,
2013-07-25 20:30:00,69.9,64.8,29.90,East,96,0.0,2.0,84,0.00,BKN,,0.00,WeatherDisplay:10.37,2013-07-26 00:30:00,
2013-07-25 20:45:00,68.9,64.2,29.90,ESE,113,0.0,2.0,85,0.00,OVC,,0.00,WeatherDisplay:10.37,2013-07-26 00:45:00,
2013-07-25 21:00:00,68.1,63.4,29.91,ESE,121,0.0,1.0,85,0.00,OVC,,0.00,WeatherDisplay:10.37,2013-07-26 01:00:00,
2013-07-25 21:15:00,67.4,62.7,29.91,SE,139,0.0,2.0,85,0.00,OVC,,0.00,WeatherDisplay:10.37,2013-07-26 01:15:00,
2013-07-25 21:30:00,66.7,62.0,29.91,SSE,152,0.0,2.0,85,0.00,OVC,,0.00,WeatherDisplay:10.37,2013-07-26 01:30:00,
2013-07-25 22:00:00,65.4,61.1,29.93,SSE,153,0.0,1.0,86,0.00,BKN,,0.00,WeatherDisplay:10.37,2013-07-26 02:00:00,
2013-07-25 22:15:00,64.9,60.6,29.93,SSE,153,0.0,1.0,86,0.00,BKN,,0.00,WeatherDisplay:10.37,2013-07-26 02:15:00,
2013-07-25 22:30:00,64.5,60.2,29.94,SSE,153,0.0,1.0,86,0.00,BKN,,0.00,WeatherDisplay:10.37,2013-07-26 02:30:00,
2013-07-25 22:45:00,64.1,59.8,29.94,SSE,153,0.0,1.0,86,0.00,CLR,,0.00,WeatherDisplay:10.37,2013-07-26 02:45:00,
2013-07-25 23:00:00,63.7,59.5,29.94,SSE,153,0.0,0.0,86,0.00,CLR,,0.00,WeatherDisplay:10.37,2013-07-26 03:00:00,
2013-07-25 23:15:00,63.4,59.5,29.94,SSE,153,0.0,1.0,87,0.00,CLR,,0.00,WeatherDisplay:10.37,2013-07-26 03:15:00,
2013-07-25 23:30:00,63.1,59.2,29.95,SSE,153,0.0,0.0,87,0.00,CLR,,0.00,WeatherDisplay:10.37,2013-07-26 03:30:00,
2013-07-25 23:45:00,62.7,58.8,29.95,SSE,153,0.0,1.0,87,0.00,CLR,,0.00,WeatherDisplay:10.37,2013-07-26 03:45:00,